Weather in Bolgrad

Ukraine / Odesa District     45°40′53″N   28°36′53″E
temp.,
°C
wind,
m/s
gust,
m/s
humid.,
%
clouds,
%
prec.,
mm/h
press.,
hPa
HPBL,
m
2 december, thu
thu223:00+3ssw497210 0.0 1010167
02:00+3ssw512865 0.0 1009266
05:00+3ssw614875 0.0 1009291
08:00+3ssw414885 0.0 1009380
11:00+8sw9145872 0.0 1009531
14:00+10ssw71253100 0.0 1007566
17:00+8ssw51064100 0.0 1007267
20:00+7ssw61469100 0.0 1007342
3 december, fri
fri323:00+6s5127239 0.0 1007227
02:00+5s410765 0.0 1006184
05:00+5s511942 0.0 1005214
08:00+5ssw513895 0.0 1005251
11:00+10ssw91752100 0.0 1005488
14:00+11ssw71650100 0.0 1005631
17:00+11sw81650100 0.0 1006470
20:00+5n71271100 0.0 1011433
4 december, sat
sat423:00+4n71275100 0.0 1013519
02:00+4n71070100 0.0 1015621
05:00+3n5877100 0.1 1016586
08:00+2nne5791100 0.8 1016393
11:00+3ne4585100 0.2 1016426
14:00+5ene236759 0.2 1014614
17:00+5se237498 0.0 1013251
20:00+4sse2583100 0.0 1013228
5 december, sun
sun523:00+4sse2485100 0.0 1012210
02:00+5sse3688100 0.0 1011252
05:00+5s3787100 0.0 1010295
08:00+6s3886100 0.0 1010327
11:00+7s5981100 0.0 1010472
14:00+10ssw61073100 0.0 1008713
17:00+7s3788100 0.0 1009166
20:00+6s379186 0.0 1009125
6 december, mon
mon623:00+6s3592100 0.0 100986
02:00+6s2292100 0.0 100924
05:00+6se3395100 0.0 100836
08:00+7sse479984 0.0 1008185
11:00+11s6108154 0.0 1008570
14:00+13s61175100 0.0 10071012
17:00+12sse41081100 0.1 1007276
20:00+10sw4882100 0.4 1009275